Regional Weather Roundup
Issued by NWS Newport/Morehead, NC

Current Version | Previous Version | Graphics & Text | Print | Product List | Glossary Off
Versions: 1 2 3 4 5 6 7 8 9 10 11 12 13 14 15 16 17 18 19 20 21 22 23 24 25 26 27 28 29 30 31 32 33 34 35 36 37 38 39 40 41 42 43 44 45 46 47 48 49 50

000
ASUS42 KMHX 271825
RWRMHX
WEATHER ROUNDUP FOR EASTERN NORTH CAROLINA
NATIONAL WEATHER SERVICE NEWPORT/MOREHEAD CITY NC
200 PM EDT SAT AUG 27 2016

NOTE: "FAIR" INDICATES FEW OR NO CLOUDS BELOW 12,000 FEET
WITH NO SIGNIFICANT WEATHER AND/OR OBSTRUCTIONS TO VISIBILITY

NCZ015>017-031-032-045>047-102-103-271900-
NORTH COAST

CITY           SKY/WX    TMP DP  RH WIND       PRES   REMARKS
EDENTON        PTSUNNY   92  70  47 E7        30.11F
ELIZABETH CITY MOSUNNY   91  70  49 N9        30.11S
KITTY HAWK     CLEAR     88  81  78 N7        30.10S HX 106
MANTEO         SUNNY     86  76  73 NE9       30.11S

$$

NCZ045>047-081-094-103-104-271900-
CENTRAL COAST

CITY           SKY/WX    TMP DP  RH WIND       PRES   REMARKS
FRISCO         SUNNY     89  75  63 VRB6      30.10F

$$

NCZ095-097-098-100-101-271900-
SOUTHERN COAST

CITY           SKY/WX    TMP DP  RH WIND       PRES   REMARKS
BEAUFORT       PTSUNNY   88  77  69 SE7       30.09S HX 100
CEDAR ISLAND   NOT AVBL
JACKSONVILLE   MOSUNNY   92  73  53 E8        30.09S HX 100
PINEY ISLAND   NOT AVBL
WILMINGTON     SUNNY     89  73  59 E10       30.10S


$$

NCZ011>013-027>030-043-044-078>080-089-090>093-098-271900-
COASTAL PLAIN

CITY           SKY/WX    TMP DP  RH WIND       PRES   REMARKS
AHOSKIE        SUNNY     90  71  53 NE9       30.11F
CLINTON        SUNNY     91  76  60 NE6       30.10F HX 103
ELIZABETHTOWN  MOSUNNY   91  73  55 E3        30.09F HX 100
GOLDSBORO      MOSUNNY   96  73  47 E5        30.08F HX 105
GREENVILLE     PTSUNNY   93  72  49 E9        30.11S HX 100
HAVELOCK       SUNNY     93  73  52 NE7       30.10F HX 102
KENANSVILLE    SUNNY     91  73  55 E7        30.10F HX 100
KINSTON        SUNNY     91  73  55 E6        30.10F HX 100
NEW BERN       MOSUNNY   92  74  55 VRB5      30.10F HX 101
RICHLANDS      PTSUNNY   91  75  59 E7        30.10F HX 101
ROCKY MOUNT    MOSUNNY   95  73  48 E5        30.10F HX 104
WASHINGTON     SUNNY     91  75  58 NE9       30.10S HX 101
WHITEVILLE     SUNNY     91  73  55 NE10G16   30.09F

$$

AMZ130-135-150-152-154-156-158-170-250-252-270-ANZ085-086-088-633-658-670-271900-
MARINE OBSERVATIONS

STATION/POSITION TIME  TEMP    WIND        PRES    WAVE   SWELL
                       AIR SEA DIR/SP/G            HT/PER HT/PER
                 (UTC) (F)     (DEG/KT/KT) (MB)    (FT/S) (FT/S)
CHESAPEAKE LIGHT NOT AVBL
64 E VA BEACH    1750   81 81   40/ 10/ 12 1019.4    2/10   2/10
DUCK             1800   80 65   20/  7/  9 1019.2
2 E DUCK         1711      79                N/A     2/ 9
OREGON INLET     1800   82 81   10/  8/ 12 1019.3
13E OREGON INLT  1800      82                N/A     2/ 9   2/ 9
HATTERAS CG      1800   84 83  360/  6/  8 1018.9
DIAMOND BUOY     1750   82 85   20/  6/  8 1019.2    3/10   3/10
CAPE LOOKOUT     1800   83      90/  9/ 10 1018.9
BEAUFORT LAB     1800   86 82  160/  8/ 11 1018.4
30 SE NEW RVR IN 1808   83 85   80/  6/  8 1019.1
30 SE NEW RVR IN 1725      85                N/A     4/ 9   2/11
27 SE WRIGHTSVLE 1808   83 85   70/  6/ 10 1019.3
5 SE WRIGHTSVLE  1808   83 85  100/  6/  8 1020.2
225 S CAPE HAT   1750   82 84   50/ 14/ 16 1017.1    5/ 8   3/ 8
41 SE CHARLESTON 1750   83 84   70/ 14/ 17 1017.5    5/10   3/10

$$




USA.gov is the U.S. government's official web portal to all federal, state and local government web resources and services.